Terminal Aerodrome Forecast
Issued by NWS Denver/Boulder, CO

Home | Current Version | Previous Version | Text Only | Print | Product List | Glossary On
Versions: 1 2 3 4 5 6 7 8 9 10 11 12 13 14 15 16 17 18 19 20 21 22 23 24 25 26 27 28 29 30 31 32 33 34 35 36 37 38 39 40 41 42 43 44 45 46 47 48 49 50
000
FTUS45 KBOU 251720
TAFDEN
TAF
KDEN 251720Z 2518/2624 35005KT P6SM FEW035 SCT045
     FM251900 01009KT P6SM SCT045 SCT120
     FM252300 05011KT P6SM SCT050 BKN110
     FM260400 08006KT P6SM FEW060 SCT120
     FM260600 21008KT P6SM SCT120
     FM261500 26011KT P6SM SCT120
     FM261900 01010KT P6SM FEW120 SCT220=

USA.gov is the U.S. government's official web portal to all federal, state and local government web resources and services.